Temperature
16 15 15 16 16 16 16 16 17 16 16 16 16 16 16 16 16 16 16 16 16 16 16 16 16 16 16 16 16 16 16 16 16 17 17 17 17 17 17 17 17 18 17
16 16 16 16 16 16 16 16 16 16 16 16 16 16 16 15 15 15 15 15 15 15 15 15 15 15 16 16 16 16 16 16 16 17 18 19 19 17 17 17 16 17 17
17 17 16 16 16 16 16 16 16 16 16 16 16 15 15 15 15 15 15 15 15 15 15 15 15 15 15 15 16 16 16 16 16 16 17 19 20 20 18 17 17 16 16
18 17 17 16 16 16 16 16 16 16 16 15 15 15 15 15 15 14 14 14 15 15 15 15 15 15 15 15 15 15 15 15 16 16 16 17 18 18 19 17 17 16 16
18 17 17 17 16 16 16 15 15 15 15 15 15 15 15 15 15 14 14 14 14 14 14 14 14 14 14 15 15 15 15 15 16 16 16 16 16 16 17 19 18 17 17
18 18 17 17 16 16 15 15 15 14 15 14 14 14 14 14 14 13 14 14 14 13 13 13 14 14 14 14 15 15 15 15 15 16 16 16 17 17 17 18 17 17 17
18 18 17 17 16 16 15 15 14 14 14 13 13 13 13 13 13 13 13 13 13 13 13 13 13 13 13 13 13 14 14 14 14 15 15 16 16 17 17 17 18 17 17
18 18 17 17 16 15 15 14 14 13 13 13 12 12 12 12 13 13 13 13 13 13 13 12 12 12 12 12 12 13 13 13 14 14 14 15 15 16 16 16 17 17 17
18 18 17 16 16 15 14 13 13 12 12 12 12 12 11 11 12 11 11 12 12 12 12 12 12 11 12 12 12 12 12 12 13 13 14 14 15 15 15 16 16 17 18
18 17 16 16 15 14 13 13 12 12 11 11 11 11 11 11 10 11 11 11 11 11 11 11 11 11 11 11 11 11 11 12 12 12 13 13 14 14 14 15 15 16 16
17 16 15 15 14 13 13 12 12 11 11 10 10 10 10 10 10 10 10 10 10 10 10 10 11 11 11 11 11 11 11 11 11 11 12 12 13 13 14 14 14 15 15
16 15 15 14 13 13 12 12 11 11 10 10 9 9 9 9 9 9 9 9 9 9 9 10 10 10 10 10 10 10 10 10 10 11 11 11 12 13 13 13 14 14 14
15 15 14 13 12 12 11 11 10 10 9 9 9 8 8 8 8 8 8 8 8 8 9 9 9 10 10 10 10 10 10 10 10 10 10 11 11 12 12 13 13 13 14
15 14 13 12 12 11 10 10 9 9 9 8 8 8 7 7 7 7 7 7 7 8 8 8 9 9 9 10 10 10 10 10 10 10 10 10 10 11 11 12 13 13 13
14 13 12 12 11 10 9 9 9 8 8 7 7 7 7 7 7 7 7 7 7 7 7 8 8 8 9 9 10 10 10 10 10 9 9 10 10 10 11 11 12 12 13
13 12 12 11 10 9 9 8 8 8 7 7 7 7 6 6 6 6 6 6 6 6 7 7 7 8 8 9 9 10 10 10 10 9 9 9 10 10 10 11 11 11 12
12 11 11 10 10 9 8 8 8 7 7 6 6 6 6 6 6 6 6 6 6 6 6 6 6 7 8 8 9 9 9 10 10 9 9 10 10 9 10 10 10 11 11
11 11 10 10 9 9 8 7 7 7 6 6 6 6 6 6 6 6 6 6 6 6 6 6 6 6 7 7 8 8 9 9 9 9 9 9 10 9 9 10 10 10 11
11 10 9 9 9 8 8 7 7 6 6 6 6 6 6 6 6 6 6 6 5 5 5 6 6 6 6 7 7 8 8 8 9 9 9 9 9 9 9 9 10 10 10
10 9 9 9 8 8 7 7 6 6 6 6 6 6 6 6 6 6 6 6 5 5 5 5 6 6 6 6 7 7 7 8 8 8 9 9 9 9 9 9 9 10 10
10 9 9 8 8 7 7 6 6 6 6 6 6 6 6 6 6 6 6 5 5 5 5 5 5 5 6 6 6 6 7 7 8 8 9 9 9 9 9 9 9 9 10
9 9 8 8 8 7 7 6 6 6 6 6 6 6 6 6 6 6 6 6 5 5 5 5 5 5 6 6 6 6 7 7 8 8 9 9 9 9 9 9 9 9 9
9 9 8 8 7 7 7 6 6 6 6 6 6 6 6 6 6 6 6 6 5 5 5 5 5 5 6 6 6 6 6 7 7 8 8 8 8 8 8 8 9 9 9
9 8 8 8 7 7 7 7 6 6 6 6 6 6 6 6 6 6 6 6 5 5 5 5 5 5 5 6 6 6 6 7 7 7 7 8 8 8 8 8 8 9 9
8 8 7 7 7 7 7 7 6 6 6 6 6 6 6 7 6 6 6 6 6 5 5 5 5 5 5 6 6 6 6 7 7 7 7 7 8 8 8 8 8 9 9
8 8 7 7 7 7 7 7 6 6 6 6 6 6 7 7 7 6 6 6 6 5 5 5 5 5 5 6 6 6 6 7 7 7 7 8 8 8 9 9 9 9 9
Wind_Speed
6 6 6 5 5 4 3 3 3 3 4 4 5 6 6 6 5 5 6 7 7 7 6 6 6 6 7 8 9 9 10 9 7 7 8 9 10 10 9 10 10 11 11
7 6 5 5 4 4 4 3 2 3 4 4 5 5 6 6 5 5 5 6 6 6 5 5 5 6 6 8 9 9 8 8 7 7 7 7 8 8 9 8 9 9 8
6 5 5 5 4 4 3 3 3 4 5 6 5 5 5 5 5 6 5 6 6 5 5 5 6 5 6 7 8 8 9 8 7 8 7 6 6 4 6 7 7 6 6
4 3 3 3 3 2 2 3 4 5 5 6 6 8 8 8 8 6 6 6 5 5 5 5 6 6 6 6 7 7 7 9 8 7 8 8 5 5 4 7 8 8 7
1 1 1 2 3 4 4 5 6 7 7 7 7 8 9 9 8 7 6 6 5 4 4 5 5 5 5 6 7 6 8 8 9 8 8 8 7 8 7 5 6 7 7
2 3 4 4 6 6 7 8 8 9 9 9 9 10 11 11 11 10 9 7 6 4 4 4 4 5 5 6 6 7 9 9 10 9 9 8 8 9 8 7 7 6 5
4 5 7 8 9 10 11 11 11 11 11 11 11 11 12 12 13 13 11 10 9 7 5 4 4 4 4 5 6 7 8 10 11 11 10 10 10 8 8 8 7 5 5
6 8 9 11 11 12 12 12 13 13 13 13 13 13 13 13 13 12 13 13 11 10 7 7 6 6 5 5 5 6 8 8 10 12 12 10 10 9 9 8 7 7 6
9 10 11 12 12 12 13 13 14 14 15 15 15 14 14 13 14 14 14 14 12 11 11 10 9 8 8 7 6 6 7 8 10 11 12 11 10 10 10 9 9 8 7
11 12 12 12 12 13 14 14 15 15 16 16 16 14 15 15 15 15 15 15 15 14 14 13 13 12 11 10 9 8 7 7 9 10 11 11 10 10 10 10 9 9 8
14 14 13 13 14 15 16 16 16 17 17 17 16 16 16 16 16 16 16 15 15 15 15 16 15 15 14 12 11 11 9 10 9 9 11 13 13 10 9 9 10 10 9
14 15 15 15 16 17 17 18 18 18 18 17 17 17 17 17 17 17 17 16 16 16 16 16 17 17 16 15 14 13 12 11 11 11 10 11 11 13 11 9 11 10 10
15 15 15 16 17 17 18 18 18 19 18 18 18 18 18 18 18 17 17 17 17 16 16 16 17 18 18 17 16 15 14 13 12 12 11 11 10 12 11 12 11 10 10
16 16 16 17 17 18 18 18 18 18 18 18 18 18 18 18 18 18 18 17 17 17 17 17 17 18 18 18 18 17 16 14 13 12 12 11 11 11 10 11 12 11 12
16 17 17 18 18 18 18 18 18 18 18 18 19 19 19 18 18 18 18 18 17 18 17 17 17 18 17 18 18 17 17 16 14 13 13 13 12 10 8 8 8 10 10
17 18 19 19 19 19 18 18 18 18 18 18 19 19 18 18 18 18 18 18 18 18 17 17 18 18 17 16 15 16 17 16 16 14 13 12 12 12 11 10 9 9 10
18 19 19 19 19 18 18 18 18 18 18 18 18 18 18 18 18 19 19 18 18 18 18 17 18 18 17 14 14 16 17 17 16 15 13 12 12 13 12 12 12 12 11
18 19 18 19 19 18 18 17 18 17 18 18 18 18 18 19 19 19 18 18 17 16 16 16 17 17 17 15 15 15 18 18 16 15 15 14 12 12 11 11 12 12 11
17 17 18 19 19 18 17 17 17 17 17 18 18 18 18 19 19 18 18 17 15 15 15 15 15 16 15 14 15 15 14 16 18 16 15 15 14 10 9 11 12 12 11
16 17 18 18 17 17 17 17 17 17 18 18 18 18 18 18 18 18 17 15 14 14 14 14 13 14 14 13 15 16 13 15 15 14 14 13 12 10 12 12 11 12 12
17 17 17 16 16 16 16 17 17 17 17 18 18 18 17 17 17 16 15 14 13 12 12 12 11 11 11 12 15 17 13 14 14 13 13 13 15 11 12 11 11 10 9
17 17 16 17 16 16 16 17 17 17 17 17 17 18 17 15 14 15 14 12 11 10 9 9 9 8 8 10 13 17 16 13 13 12 11 10 17 14 12 11 9 7 7
16 16 17 17 16 15 15 17 17 17 16 17 17 17 17 15 13 13 12 11 8 7 6 6 6 5 5 8 12 15 15 13 11 9 5 8 15 13 11 11 9 9 9
16 16 17 17 17 17 16 16 16 15 15 16 16 15 14 14 13 10 9 8 7 6 5 4 4 4 4 6 9 10 11 12 11 9 8 11 11 9 7 8 10 10 10
15 15 15 16 18 17 17 16 15 15 15 15 14 14 13 12 11 9 7 8 6 5 5 4 3 3 3 4 6 8 10 11 12 11 9 10 10 11 11 10 9 10 10
15 15 16 17 17 17 17 16 15 14 14 13 12 11 11 10 9 9 7 2 3 3 3 4 4 2 1 5 6 4 3 4 9 10 10 10 11 11 11 10 10 9 10
Wind_Direction
74 73 74 72 71 64 54 30 5 346 325 323 316 315 311 308 303 299 305 302 298 293 283 275 265 254 245 239 235 233 229 233 233 240 242 237 235 239 244 243 247 240 238
88 80 80 81 74 62 44 30 5 356 336 342 321 314 316 313 315 309 309 314 314 313 300 290 281 264 253 241 235 230 236 231 216 232 245 242 224 220 230 226 227 236 230
86 86 82 78 72 59 36 20 359 344 344 335 325 325 313 307 319 321 319 329 332 332 320 296 279 264 255 245 236 227 229 234 223 225 241 246 243 205 195 213 219 219 229
91 85 82 68 53 33 8 351 338 337 335 326 333 332 328 329 330 322 323 323 329 331 328 310 291 268 254 251 244 237 236 237 233 219 234 255 292 263 209 198 201 211 224
81 54 1 343 338 332 331 329 329 325 324 321 314 308 312 318 317 316 310 305 305 308 317 317 308 294 274 260 249 247 239 235 239 233 220 221 226 239 260 227 199 206 218
296 302 306 308 312 317 319 321 322 318 315 310 307 301 302 302 303 301 300 293 293 291 291 293 296 292 288 277 265 249 240 242 243 246 237 223 219 220 225 233 227 224 218
298 306 310 314 315 317 321 322 321 317 316 311 307 302 297 292 284 284 287 285 285 278 266 268 271 281 280 278 272 259 252 243 239 236 238 237 236 235 227 233 230 227 220
304 305 309 312 315 319 323 324 324 320 317 312 308 303 296 289 289 288 289 286 282 278 273 255 246 243 249 258 260 264 260 254 246 241 239 240 237 234 229 231 231 225 218
313 312 316 317 320 322 322 321 319 316 314 312 307 297 295 295 295 292 280 277 274 270 261 252 246 242 236 236 241 250 255 258 254 248 241 238 237 234 232 230 232 236 230
318 319 319 318 319 317 316 316 314 313 312 309 308 306 305 298 293 289 288 284 280 274 267 258 251 244 237 232 233 242 241 246 254 254 250 242 241 236 231 228 227 232 242
322 321 319 319 317 315 315 316 315 314 312 310 309 305 301 299 296 289 284 281 277 273 266 260 253 248 243 235 231 239 239 238 243 254 254 246 240 235 231 228 225 224 227
320 318 318 319 317 317 318 316 315 313 311 310 307 303 301 298 294 291 289 286 280 273 266 260 255 249 244 238 233 234 235 237 239 238 245 254 247 236 232 230 226 223 222
320 318 318 319 318 318 317 315 313 311 311 310 307 304 302 300 297 295 291 286 280 274 269 262 256 251 247 242 236 234 233 234 235 237 238 242 250 245 233 227 229 225 220
319 317 318 317 318 316 314 313 311 311 310 309 306 303 301 299 297 294 291 287 281 275 269 263 257 251 247 242 237 232 231 232 232 231 232 234 236 243 242 231 227 226 221
319 320 319 319 317 316 315 313 312 312 311 309 306 304 303 301 298 294 291 287 282 276 271 264 257 250 245 240 233 231 229 228 230 228 227 227 226 233 240 242 232 228 222
322 321 320 319 318 317 315 314 312 312 311 308 306 306 304 301 298 295 292 288 283 278 274 267 259 251 244 233 223 226 231 227 226 227 224 222 214 220 221 238 246 247 237
321 320 319 318 317 316 316 313 313 312 310 307 304 303 301 300 297 295 292 288 284 279 273 267 260 253 246 234 216 217 230 229 225 224 222 225 215 204 217 215 224 236 252
319 319 318 317 317 318 318 315 313 311 309 306 304 304 303 301 300 296 292 288 283 279 274 267 260 253 243 220 211 209 225 231 226 222 220 223 227 212 214 216 218 221 224
319 317 317 317 318 318 319 317 313 311 308 307 308 308 306 304 302 299 296 293 287 280 273 267 260 252 242 215 204 203 221 225 226 222 219 218 222 195 188 222 224 222 221
320 319 318 317 318 321 320 315 312 310 309 310 310 309 305 302 302 300 298 295 289 282 276 268 258 249 241 214 199 199 218 222 221 219 218 213 223 180 179 221 227 224 220
319 320 319 319 321 320 318 313 310 309 311 310 309 307 305 304 302 301 300 297 292 285 277 270 262 251 239 212 197 198 213 219 221 217 213 208 185 184 187 220 234 232 225
322 323 322 320 321 320 318 313 311 312 311 309 308 308 308 308 306 305 305 303 298 291 285 275 263 245 229 212 195 197 210 226 224 221 216 196 166 178 190 213 226 221 218
323 323 322 319 320 323 321 314 313 314 311 309 309 310 311 311 309 309 310 309 304 294 288 277 262 248 224 194 185 193 203 218 229 224 205 152 157 174 198 215 209 208 217
324 324 322 321 321 323 321 316 315 314 311 310 311 312 313 315 318 316 315 313 312 307 298 288 266 248 221 196 187 192 196 202 214 216 166 149 163 204 222 195 202 216 218
324 323 321 320 320 323 320 320 321 320 315 313 314 314 316 319 320 321 323 324 333 332 309 302 293 266 227 193 177 189 192 197 198 192 193 197 195 203 211 213 211 209 207
323 323 323 322 322 322 321 323 325 323 315 313 315 315 317 319 320 323 328 330 310 330 312 297 309 311 81 131 149 158 156 152 164 187 199 203 204 207 211 212 208 206 205
Height
1521 1520 1520 1519 1519 1519 1518 1518 1518 1517 1516 1515 1514 1513 1511 1508 1506 1503 1500 1497 1495 1493 1492 1492 1494 1494 1496 1497 1500 1502 1505 1506 1508 1510 1511 1512 1512 1513 1514 1515 1516 1517 1518
1523 1522 1521 1521 1520 1520 1519 1518 1518 1517 1515 1514 1512 1511 1508 1506 1504 1501 1498 1495 1493 1490 1489 1489 1489 1489 1491 1493 1496 1498 1501 1503 1504 1506 1508 1508 1509 1508 1509 1510 1511 1513 1514
1524 1523 1523 1522 1521 1520 1519 1519 1517 1516 1515 1513 1512 1510 1507 1505 1503 1499 1496 1493 1491 1489 1487 1486 1486 1486 1488 1490 1492 1494 1495 1499 1500 1502 1505 1505 1504 1504 1506 1507 1508 1509 1510
1524 1524 1523 1523 1522 1521 1519 1518 1516 1515 1513 1511 1510 1508 1507 1504 1501 1498 1495 1491 1489 1487 1485 1484 1484 1483 1485 1486 1488 1489 1492 1494 1496 1498 1500 1502 1502 1503 1503 1504 1505 1505 1506
1524 1524 1523 1522 1521 1520 1519 1517 1514 1512 1510 1508 1507 1505 1504 1502 1499 1496 1493 1490 1487 1485 1483 1482 1481 1481 1481 1483 1484 1486 1487 1490 1492 1495 1497 1498 1499 1500 1501 1500 1502 1503 1504
1523 1523 1522 1521 1520 1519 1517 1515 1512 1510 1507 1505 1503 1501 1499 1497 1495 1492 1490 1488 1486 1483 1481 1479 1478 1478 1477 1478 1479 1481 1482 1484 1487 1490 1492 1494 1495 1496 1497 1498 1499 1500 1501
1522 1521 1520 1519 1518 1516 1514 1512 1509 1506 1503 1501 1499 1497 1494 1492 1490 1488 1487 1484 1482 1480 1478 1476 1474 1474 1473 1473 1474 1475 1477 1479 1481 1483 1486 1489 1491 1493 1494 1495 1495 1496 1497
1520 1519 1518 1516 1514 1512 1510 1507 1504 1501 1499 1497 1494 1491 1489 1487 1486 1483 1481 1480 1478 1476 1474 1472 1471 1470 1469 1469 1470 1470 1471 1473 1475 1477 1480 1482 1485 1487 1489 1490 1492 1493 1494
1518 1517 1515 1513 1511 1509 1507 1504 1500 1497 1494 1491 1488 1485 1483 1481 1479 1476 1474 1474 1472 1471 1469 1468 1467 1466 1465 1465 1465 1465 1466 1467 1469 1471 1473 1475 1478 1481 1483 1485 1487 1489 1489
1516 1514 1512 1510 1508 1506 1503 1499 1496 1492 1489 1486 1482 1480 1477 1474 1472 1469 1468 1466 1465 1464 1463 1462 1462 1461 1461 1460 1460 1460 1460 1461 1462 1464 1466 1468 1471 1474 1476 1479 1481 1484 1486
1513 1512 1509 1507 1504 1501 1498 1494 1491 1487 1483 1479 1476 1472 1469 1467 1464 1462 1460 1458 1457 1456 1455 1455 1455 1455 1455 1455 1455 1455 1455 1455 1456 1457 1459 1461 1464 1467 1470 1473 1475 1478 1480
1511 1509 1506 1503 1500 1496 1493 1489 1485 1481 1477 1473 1469 1465 1462 1459 1456 1454 1452 1450 1448 1447 1447 1447 1447 1447 1448 1448 1448 1449 1450 1450 1450 1451 1452 1454 1457 1459 1462 1465 1469 1472 1475
1507 1505 1502 1499 1495 1492 1488 1483 1479 1475 1471 1467 1462 1458 1455 1451 1448 1445 1443 1441 1439 1438 1437 1437 1437 1438 1439 1440 1441 1442 1443 1444 1445 1446 1446 1447 1449 1452 1455 1459 1462 1465 1469
1504 1501 1498 1495 1491 1487 1482 1478 1473 1469 1464 1460 1456 1452 1448 1444 1440 1437 1434 1432 1430 1428 1427 1427 1427 1428 1430 1431 1433 1435 1436 1438 1439 1440 1441 1442 1443 1445 1448 1451 1455 1459 1463
1500 1498 1494 1490 1486 1482 1477 1472 1467 1463 1458 1454 1449 1445 1441 1436 1433 1429 1426 1423 1421 1419 1418 1417 1417 1418 1419 1422 1424 1427 1429 1431 1433 1434 1435 1436 1438 1440 1442 1445 1448 1453 1456
1497 1494 1490 1486 1481 1476 1471 1466 1462 1457 1452 1447 1443 1438 1433 1429 1425 1421 1418 1414 1411 1409 1408 1407 1407 1407 1409 1411 1414 1418 1421 1424 1426 1428 1429 1431 1432 1434 1436 1439 1442 1446 1449
1494 1490 1485 1481 1476 1471 1466 1461 1456 1451 1446 1441 1436 1431 1427 1422 1417 1413 1409 1405 1402 1399 1397 1396 1396 1397 1398 1401 1404 1408 1413 1416 1419 1421 1423 1426 1427 1429 1431 1433 1436 1439 1443
1490 1486 1481 1476 1471 1466 1461 1456 1450 1445 1440 1435 1430 1425 1420 1415 1410 1405 1400 1396 1393 1390 1387 1386 1386 1386 1388 1391 1395 1399 1404 1408 1411 1414 1417 1420 1422 1424 1426 1429 1431 1433 1437
1487 1482 1477 1472 1466 1461 1456 1450 1445 1440 1435 1429 1424 1419 1413 1408 1402 1397 1392 1388 1384 1381 1378 1377 1376 1377 1379 1382 1386 1390 1395 1399 1403 1407 1410 1414 1417 1419 1420 1423 1426 1428 1431
1482 1477 1472 1467 1462 1456 1451 1445 1440 1434 1429 1424 1418 1413 1407 1401 1395 1390 1385 1380 1376 1373 1370 1369 1368 1369 1371 1374 1378 1382 1387 1392 1396 1400 1403 1407 1411 1413 1415 1418 1420 1423 1426
1478 1473 1468 1463 1457 1452 1446 1440 1435 1429 1424 1418 1412 1407 1401 1395 1389 1384 1379 1374 1370 1366 1364 1362 1361 1362 1364 1367 1370 1375 1380 1385 1389 1393 1397 1401 1404 1408 1410 1413 1416 1418 1421
1474 1469 1464 1458 1453 1448 1442 1436 1430 1424 1418 1413 1407 1401 1396 1390 1384 1379 1373 1369 1365 1361 1359 1357 1356 1356 1358 1361 1364 1369 1374 1379 1384 1388 1392 1396 1399 1402 1405 1408 1410 1413 1416
1470 1465 1460 1454 1449 1444 1438 1431 1425 1419 1413 1408 1402 1397 1391 1385 1380 1374 1369 1365 1361 1358 1355 1353 1352 1353 1354 1356 1360 1364 1369 1374 1379 1384 1388 1391 1394 1398 1401 1403 1405 1408 1411
1466 1462 1456 1451 1445 1440 1434 1428 1421 1415 1409 1404 1398 1393 1387 1382 1376 1371 1366 1362 1358 1355 1353 1351 1350 1350 1351 1353 1356 1360 1365 1370 1375 1380 1384 1387 1391 1394 1397 1399 1400 1403 1406
1463 1458 1453 1448 1442 1436 1430 1424 1418 1411 1405 1400 1395 1390 1385 1379 1373 1369 1364 1360 1357 1354 1352 1350 1349 1350 1350 1352 1355 1357 1362 1366 1371 1376 1380 1384 1387 1390 1392 1395 1396 1399 1401
1460 1455 1450 1444 1438 1432 1426 1420 1414 1408 1402 1396 1391 1387 1382 1377 1371 1367 1363 1359 1356 1353 1351 1350 1349 1349 1350 1351 1354 1357 1361 1365 1369 1373 1376 1379 1382 1385 1388 1390 1392 1394 1396